Temperature
12 12 12 12 12 13 13 13 13 14 13 13 13 13 14 14 14 14 14 14 14 14 14 14 14 15 15 15 15 14 15 15 15 15 15 15 15 15 15 15 15 15 15
12 12 12 12 12 12 13 13 13 13 13 13 13 13 13 13 13 14 14 14 14 14 14 14 14 14 14 14 14 14 14 14 14 14 14 14 14 14 14 14 14 14 14
12 12 12 12 12 12 12 13 13 13 13 13 13 13 13 13 13 13 13 13 13 14 14 14 14 14 14 14 14 14 14 14 14 14 14 14 14 14 14 14 14 14 14
11 12 12 12 12 12 12 12 12 13 13 13 13 13 13 13 13 13 13 13 13 13 13 13 14 14 14 14 14 14 14 14 14 14 14 14 14 14 14 14 14 14 14
11 11 12 12 12 12 12 12 12 12 12 12 12 12 12 13 13 13 13 13 13 13 13 13 13 13 13 13 14 14 14 14 14 14 14 14 14 14 14 14 14 14 14
11 11 11 11 11 12 12 12 12 12 12 12 12 12 12 12 12 13 13 13 13 13 13 13 13 13 13 13 13 14 14 13 13 13 13 13 13 13 13 13 14 13 13
11 11 11 11 11 11 11 11 11 12 12 12 12 12 12 12 12 12 13 13 12 12 13 12 12 13 13 13 13 13 13 13 13 13 13 13 13 13 13 13 13 13 13
10 11 10 10 11 11 11 11 11 11 11 11 11 12 12 12 12 12 12 12 12 12 12 12 12 12 12 13 13 13 13 13 13 13 13 13 12 12 12 13 13 13 13
10 10 10 10 10 10 11 11 11 11 11 11 11 12 12 12 12 12 12 12 12 12 12 12 12 12 12 12 12 12 12 12 12 12 12 12 12 12 12 12 12 12 12
9 10 10 10 10 10 10 10 11 11 11 11 11 11 11 11 11 11 12 12 12 12 12 12 12 11 12 12 12 12 12 12 12 12 12 11 11 11 11 11 12 12 12
9 9 9 9 10 10 10 10 10 10 11 11 11 11 11 11 11 11 11 11 11 11 11 11 11 11 11 11 11 11 12 12 12 12 12 11 11 11 11 11 11 11 11
9 9 9 9 9 9 9 10 10 10 10 10 10 10 10 10 10 10 11 11 11 11 11 11 11 11 11 11 11 11 11 11 11 11 11 11 11 11 11 11 11 11 11
8 8 8 9 9 9 9 9 9 9 10 10 10 10 10 10 10 10 10 10 10 10 10 10 10 10 10 10 10 11 11 11 11 11 11 11 11 10 10 11 11 11 11
8 8 8 8 8 8 8 9 9 9 9 9 9 9 9 9 9 9 10 10 10 10 10 10 10 10 10 10 10 10 10 10 10 10 10 10 10 10 10 10 10 10 10
7 8 8 7 8 8 8 8 8 8 8 8 9 9 9 9 9 9 9 9 9 9 9 9 9 9 9 9 9 9 9 10 10 10 10 10 10 10 10 10 10 10 10
7 7 7 7 7 7 7 8 8 8 8 8 8 8 8 8 8 8 8 8 8 9 9 9 9 9 9 9 9 9 9 9 9 9 10 10 10 10 10 10 10 9 9
7 7 7 7 7 6 7 7 7 7 7 7 7 7 8 8 8 8 8 8 8 8 8 8 8 8 8 8 8 8 8 8 8 9 9 9 9 9 9 9 9 9 9
6 6 6 6 6 6 6 6 6 7 7 7 7 7 7 7 7 7 7 7 7 7 7 7 8 8 8 8 8 8 8 8 8 8 8 8 9 9 9 9 9 9 9
6 6 6 6 6 5 5 5 6 6 6 6 6 6 6 6 7 7 7 7 7 7 7 7 7 7 7 7 7 7 7 7 7 7 8 8 8 8 8 8 8 8 8
6 5 5 5 5 5 5 5 5 5 5 5 5 6 6 6 6 6 6 6 6 6 6 6 6 6 6 6 6 6 6 6 7 7 7 7 7 7 7 7 7 8 8
5 5 5 5 5 5 5 5 5 5 5 5 5 5 5 5 5 5 5 6 6 6 6 5 5 5 5 5 5 5 6 6 6 6 6 6 6 6 7 7 7 7 7
5 4 4 4 4 4 4 4 4 4 4 4 4 4 4 4 4 5 5 5 5 5 5 5 5 5 5 4 4 4 4 4 5 5 5 5 5 5 6 6 6 6 6
4 4 4 4 4 4 4 4 4 4 4 4 4 4 4 4 4 4 4 4 4 4 4 4 4 4 4 4 4 4 3 3 3 4 4 4 4 4 5 5 5 5 5
4 4 4 4 4 3 3 3 3 3 3 3 3 3 3 3 3 3 3 3 3 3 3 3 3 3 3 3 3 3 3 3 3 2 3 3 3 3 4 4 4 4 4
4 4 3 3 3 3 3 3 2 3 3 3 2 2 3 3 3 3 3 3 3 3 3 3 3 3 2 3 3 3 3 2 3 2 2 2 2 3 3 3 3 3 3
3 3 3 3 2 2 2 2 2 2 2 2 2 2 2 2 2 2 2 2 2 2 2 2 2 2 2 2 2 2 2 2 2 2 2 2 1 2 2 2 2 2 2
Wind_Speed
1 1 3 5 6 7 9 10 11 12 12 12 13 13 14 14 14 14 14 14 14 14 14 15 15 15 16 15 15 15 15 16 17 16 16 16 16 16 17 16 15 14 16
3 2 4 6 7 8 9 10 11 11 12 12 12 13 13 13 14 14 14 14 14 14 14 14 15 15 15 15 15 15 15 15 16 16 15 14 15 15 16 15 14 13 15
4 4 5 6 8 9 9 10 10 11 11 12 12 13 13 13 13 13 13 13 13 13 14 14 14 14 14 15 14 14 14 14 14 14 13 12 12 14 15 15 14 14 15
6 6 6 8 9 10 10 10 10 10 11 11 12 12 12 13 13 12 12 12 13 13 13 13 13 14 14 14 14 14 14 14 14 12 11 10 10 13 14 14 14 13 13
7 6 7 9 10 10 10 11 10 10 11 11 11 12 12 12 12 12 12 12 12 12 12 12 13 13 13 13 14 14 14 14 13 12 10 9 9 12 12 13 13 13 13
7 7 7 10 10 10 10 11 11 11 11 11 11 11 11 12 12 12 11 12 11 11 12 12 13 13 13 13 13 13 13 13 12 11 10 8 8 11 12 12 12 12 12
6 7 7 9 10 10 10 11 11 11 11 11 11 11 11 11 11 12 11 11 11 11 11 12 12 12 13 13 13 13 13 12 11 10 9 8 9 11 12 11 12 12 12
7 8 8 9 9 10 10 10 11 11 10 10 10 10 10 10 10 11 11 11 11 11 11 11 11 12 12 12 13 13 13 12 10 9 8 8 9 10 11 11 11 11 12
8 8 8 8 8 9 9 10 10 10 10 10 10 10 10 10 10 10 10 11 11 11 11 11 10 11 11 12 12 12 13 12 11 8 7 7 9 9 10 10 10 11 11
7 7 7 8 8 8 8 9 9 9 9 10 10 10 10 10 10 9 9 10 10 10 10 11 10 10 11 11 11 12 12 11 10 9 7 8 9 9 9 9 9 9 10
5 4 6 6 7 7 7 7 8 8 9 9 9 10 10 9 9 8 9 9 9 10 10 10 10 10 10 10 11 11 10 9 9 7 6 7 9 9 8 8 8 9 8
4 3 4 5 5 6 6 6 7 7 8 8 8 9 9 9 8 8 8 9 9 9 9 9 10 10 9 9 9 9 9 8 8 7 6 8 8 8 7 7 8 8 8
6 4 3 4 4 5 5 5 5 6 6 7 8 8 8 8 8 8 8 8 8 8 8 8 8 8 8 7 7 8 8 7 7 6 6 7 7 7 7 6 7 7 7
5 5 3 4 4 4 5 4 4 5 5 5 6 7 7 6 6 6 6 6 6 6 7 7 6 7 7 7 7 7 7 6 6 6 6 6 6 6 6 6 5 5 5
6 5 5 4 3 3 4 3 4 4 4 4 5 6 6 5 4 4 4 5 5 5 5 5 6 5 5 5 5 6 5 5 5 5 5 5 5 5 5 5 5 4 4
7 6 5 4 4 4 3 3 3 4 4 5 5 5 5 5 4 3 3 4 4 4 4 4 4 4 4 4 4 5 4 4 4 4 4 4 4 4 4 4 4 4 3
8 7 6 5 5 4 3 3 3 3 4 4 3 4 4 4 4 3 3 3 3 3 4 5 5 5 4 3 3 4 4 3 3 3 3 3 3 3 4 4 3 3 3
7 7 6 5 5 4 3 2 3 3 4 3 3 3 3 4 4 4 3 2 2 3 4 3 3 2 2 2 2 2 2 3 3 2 3 3 3 3 3 3 3 3 2
9 8 7 5 5 4 3 3 2 3 3 3 3 3 3 3 3 3 2 1 2 3 3 2 2 2 2 2 2 1 2 2 2 2 3 3 3 3 3 3 3 3 3
8 8 7 6 5 4 3 2 2 1 1 2 2 2 2 2 2 2 2 2 2 2 1 2 1 1 1 1 1 2 2 1 1 1 1 2 3 3 3 3 3 3 3
7 8 8 7 6 5 4 3 2 2 2 1 2 3 3 3 3 2 2 2 2 1 1 1 1 1 1 1 2 2 2 2 1 1 2 2 3 3 4 3 3 3 3
9 9 8 8 7 6 5 3 2 2 2 2 2 2 3 4 4 3 2 2 2 2 1 1 1 1 0 0 1 1 1 1 2 2 1 1 1 3 3 4 3 3 3
9 10 9 8 7 6 5 3 2 1 1 1 2 2 3 4 4 3 3 2 3 3 3 3 3 2 1 1 1 2 1 2 2 2 2 1 1 2 2 3 3 3 2
10 9 9 9 8 6 6 6 6 4 4 4 3 3 3 4 4 4 4 3 3 3 3 3 2 2 3 2 1 0 1 1 1 2 2 2 1 1 1 2 3 3 3
7 7 7 7 7 6 6 7 7 5 4 2 2 3 3 3 3 4 4 4 4 4 4 4 3 2 3 3 2 1 1 1 1 2 3 2 2 2 2 2 2 2 3
5 5 6 6 6 6 6 6 7 7 5 4 4 4 4 2 2 3 4 4 4 4 4 4 4 4 4 3 2 2 2 2 2 2 2 3 3 3 3 2 2 2 2
Wind_Direction
190 318 86 82 91 90 87 86 86 85 85 83 83 82 80 78 78 77 77 76 77 78 77 76 77 76 77 79 81 81 80 78 77 76 75 77 80 82 82 81 80 79 84
152 125 104 90 93 95 93 90 90 87 86 86 85 84 82 80 79 77 77 77 76 76 76 77 78 78 77 77 79 80 80 80 77 75 73 74 78 82 84 83 82 84 85
113 106 104 98 92 92 97 93 93 91 89 88 86 85 83 82 81 79 77 77 75 75 76 77 77 77 76 76 78 78 79 82 77 75 72 71 78 83 84 83 82 84 86
113 106 104 101 96 93 95 96 95 94 93 92 90 87 85 83 82 81 79 79 78 77 78 77 76 76 75 76 76 76 78 79 74 73 70 70 80 86 85 83 83 85 86
102 101 105 104 98 95 92 93 97 96 95 95 94 91 89 86 83 81 78 79 79 79 79 77 76 75 74 74 74 75 77 75 72 69 65 66 81 89 86 85 84 86 85
95 98 108 105 100 97 95 92 94 96 94 94 94 92 90 87 83 81 79 78 79 83 83 81 79 74 73 72 72 73 75 71 69 67 62 66 84 90 86 87 86 86 85
96 93 108 108 104 99 95 93 92 91 91 91 91 90 89 88 85 81 82 81 80 84 86 84 80 76 73 71 70 70 73 71 69 65 62 69 90 94 89 88 88 85 86
100 90 98 107 104 101 98 94 90 88 88 90 90 89 88 88 86 84 82 82 83 87 88 87 82 77 74 71 70 68 70 69 70 65 64 72 87 96 93 91 91 89 86
98 89 84 90 96 98 98 95 92 88 86 88 88 89 89 87 86 86 84 81 82 85 86 87 85 81 77 74 73 71 70 67 63 62 66 73 81 87 92 92 96 94 90
93 89 87 84 84 84 91 96 93 89 84 83 84 85 88 86 83 83 83 85 85 82 82 84 83 83 78 75 73 72 69 62 59 56 62 77 79 85 85 86 91 97 97
102 88 91 87 85 86 87 95 94 92 85 78 81 83 83 78 76 74 76 84 87 86 83 81 79 78 74 71 70 69 65 59 60 54 65 78 78 83 85 83 87 92 100
137 126 102 99 96 95 90 86 86 86 84 77 77 83 81 81 77 74 74 75 77 83 84 80 76 73 68 63 62 61 59 57 58 53 66 77 75 76 83 86 85 91 94
158 144 121 112 112 105 96 95 86 85 84 81 79 84 84 81 76 71 67 62 62 66 69 73 72 66 64 64 62 60 59 59 57 53 62 75 72 73 78 85 90 89 97
161 158 145 124 117 112 111 107 98 89 86 82 84 88 89 77 67 65 63 61 59 61 59 65 68 66 66 66 67 63 59 59 56 52 55 69 72 70 73 77 85 92 93
173 170 165 142 127 119 112 110 106 99 97 96 91 90 97 90 78 68 61 62 57 62 63 61 61 64 66 63 62 63 58 56 55 52 49 58 65 68 68 71 71 87 101
183 178 172 156 141 124 116 116 115 116 113 105 96 98 103 103 95 83 65 53 49 60 67 73 64 64 63 62 55 56 62 65 60 54 49 49 54 62 62 64 64 62 84
187 180 176 163 144 138 132 135 128 125 119 107 109 113 108 104 110 102 83 61 48 64 73 73 65 63 58 54 44 44 55 60 62 64 62 61 51 46 49 46 44 44 45
180 179 181 172 157 156 148 140 133 134 128 121 126 128 121 112 120 118 101 78 74 81 74 72 69 62 49 35 20 27 41 49 48 61 73 77 68 46 31 25 23 19 19
182 180 181 174 168 165 155 147 138 139 139 138 140 136 135 124 122 115 118 108 106 89 69 77 68 79 74 37 5 9 29 30 37 64 66 72 69 58 39 9 6 5 7
180 179 178 175 174 161 146 125 108 120 136 143 153 160 151 145 138 118 117 115 116 100 84 74 78 73 114 79 26 9 347 357 41 63 73 72 70 62 51 24 16 5 3
173 175 177 176 177 165 163 168 175 195 196 191 192 188 177 167 165 142 131 133 123 139 152 116 105 89 68 67 54 20 350 344 19 43 65 65 55 56 52 36 34 35 9
184 185 184 183 180 179 181 180 180 180 202 204 201 203 198 191 187 182 169 173 164 151 151 149 115 102 20 98 99 78 2 329 344 338 353 24 34 46 48 26 27 34 20
192 191 191 189 185 183 176 159 141 97 72 194 213 218 228 212 206 204 198 194 185 177 189 199 175 163 187 272 142 142 164 221 294 297 292 300 355 21 28 12 8 7 357
199 193 192 188 185 182 172 176 179 190 206 218 217 218 233 222 218 216 210 212 204 196 198 208 201 191 174 208 266 292 206 196 218 269 289 289 296 298 314 342 350 338 330
192 189 190 185 186 183 181 185 192 206 217 217 212 218 220 231 224 219 214 216 217 208 205 206 210 209 195 199 216 247 259 299 251 228 255 264 284 276 280 296 295 303 307
185 181 181 182 188 187 188 191 197 204 205 205 213 220 223 231 233 223 218 218 225 218 210 211 208 209 211 207 215 222 222 220 228 233 251 257 265 273 280 275 259 253 289
Height
1530 1532 1533 1534 1535 1536 1537 1537 1537 1537 1537 1538 1538 1538 1538 1538 1538 1539 1539 1539 1539 1539 1539 1539 1539 1539 1540 1540 1540 1541 1541 1541 1541 1542 1542 1543 1543 1544 1544 1544 1544 1544 1544
1529 1531 1532 1534 1535 1536 1536 1537 1537 1537 1538 1538 1538 1538 1539 1539 1539 1539 1539 1540 1540 1540 1540 1540 1540 1541 1541 1541 1541 1542 1542 1543 1543 1543 1544 1544 1545 1545 1545 1546 1546 1546 1546
1528 1530 1531 1533 1534 1535 1536 1537 1537 1537 1538 1538 1538 1539 1539 1539 1539 1539 1540 1540 1540 1540 1540 1541 1541 1541 1542 1542 1542 1543 1543 1544 1544 1545 1545 1545 1546 1546 1547 1547 1547 1547 1548
1527 1529 1531 1532 1534 1535 1536 1536 1537 1537 1538 1538 1538 1539 1539 1539 1539 1540 1540 1540 1540 1541 1541 1541 1542 1542 1542 1543 1543 1544 1544 1545 1545 1546 1546 1546 1547 1548 1548 1548 1548 1549 1549
1527 1528 1530 1532 1533 1534 1535 1536 1537 1537 1538 1538 1538 1538 1539 1539 1539 1540 1540 1540 1540 1541 1541 1542 1542 1542 1543 1543 1544 1544 1545 1545 1546 1547 1547 1547 1548 1549 1549 1549 1549 1549 1550
1526 1528 1529 1531 1532 1533 1534 1535 1536 1537 1537 1537 1538 1538 1538 1539 1539 1539 1540 1540 1540 1541 1541 1542 1542 1543 1543 1544 1544 1545 1545 1546 1547 1547 1548 1548 1549 1549 1550 1550 1550 1550 1550
1525 1527 1528 1530 1531 1532 1533 1534 1535 1536 1536 1537 1537 1538 1538 1538 1539 1539 1539 1540 1540 1540 1541 1542 1542 1543 1544 1544 1545 1545 1546 1546 1547 1547 1548 1549 1549 1550 1550 1551 1551 1551 1551
1525 1526 1527 1529 1530 1531 1532 1533 1534 1535 1535 1536 1537 1537 1538 1538 1538 1539 1539 1539 1539 1540 1541 1541 1542 1543 1543 1544 1545 1545 1546 1547 1547 1548 1548 1549 1550 1550 1550 1551 1551 1551 1552
1524 1525 1527 1528 1529 1530 1531 1532 1533 1534 1534 1535 1536 1536 1537 1537 1538 1538 1538 1539 1539 1539 1540 1541 1542 1542 1543 1544 1544 1545 1546 1547 1547 1548 1548 1549 1550 1550 1551 1551 1551 1552 1552
1523 1524 1525 1526 1528 1529 1530 1531 1532 1532 1533 1534 1535 1535 1536 1536 1537 1537 1538 1538 1538 1539 1540 1540 1541 1542 1543 1543 1544 1545 1546 1547 1547 1547 1548 1549 1550 1550 1550 1551 1551 1552 1552
1521 1522 1524 1525 1526 1527 1528 1529 1530 1531 1532 1533 1534 1534 1535 1535 1536 1537 1537 1538 1538 1538 1539 1540 1540 1541 1542 1543 1544 1544 1545 1546 1547 1547 1548 1549 1549 1550 1550 1550 1551 1551 1552
1518 1520 1522 1523 1524 1526 1527 1528 1529 1530 1530 1531 1532 1533 1534 1534 1535 1536 1536 1537 1537 1538 1538 1539 1539 1540 1541 1542 1543 1544 1545 1545 1546 1547 1547 1548 1548 1549 1550 1550 1550 1551 1552
1516 1518 1519 1521 1522 1524 1525 1526 1527 1528 1529 1530 1531 1532 1532 1533 1534 1534 1535 1536 1536 1537 1537 1538 1538 1539 1540 1541 1542 1543 1544 1544 1545 1546 1546 1547 1547 1548 1549 1549 1550 1550 1551
1514 1515 1517 1519 1520 1522 1523 1524 1525 1526 1527 1528 1529 1530 1531 1532 1532 1533 1534 1534 1535 1535 1536 1537 1537 1538 1539 1540 1541 1542 1543 1543 1544 1545 1545 1546 1547 1547 1548 1548 1549 1549 1550
1512 1513 1515 1517 1518 1520 1521 1522 1523 1524 1525 1527 1527 1528 1530 1530 1531 1531 1532 1533 1533 1534 1534 1535 1536 1537 1538 1539 1540 1540 1541 1542 1543 1543 1544 1545 1545 1546 1546 1547 1548 1548 1548
1509 1511 1513 1514 1516 1518 1519 1520 1521 1522 1523 1524 1525 1526 1527 1528 1529 1530 1530 1531 1532 1532 1533 1534 1534 1535 1536 1537 1538 1539 1539 1540 1541 1542 1542 1543 1544 1544 1545 1545 1546 1546 1547
1506 1508 1510 1512 1514 1515 1517 1518 1519 1520 1521 1522 1523 1524 1525 1526 1527 1528 1528 1529 1530 1531 1531 1532 1533 1534 1534 1535 1536 1537 1538 1538 1539 1540 1541 1541 1542 1542 1543 1543 1544 1544 1545
1504 1506 1507 1509 1511 1512 1514 1515 1516 1517 1519 1520 1521 1522 1523 1524 1525 1526 1526 1527 1528 1528 1529 1530 1530 1531 1532 1533 1533 1534 1535 1536 1537 1538 1538 1539 1539 1540 1541 1541 1542 1542 1543
1500 1502 1504 1506 1508 1510 1511 1513 1514 1515 1516 1517 1518 1519 1520 1521 1522 1523 1524 1525 1525 1526 1526 1527 1528 1529 1529 1530 1531 1532 1533 1533 1534 1535 1536 1536 1537 1537 1538 1539 1539 1540 1541
1497 1499 1501 1503 1505 1507 1508 1510 1511 1512 1513 1514 1515 1516 1517 1518 1519 1520 1521 1522 1523 1523 1524 1524 1525 1526 1527 1527 1528 1529 1530 1531 1532 1532 1533 1533 1534 1534 1535 1536 1536 1537 1538
1493 1495 1497 1499 1501 1503 1504 1505 1506 1508 1509 1510 1512 1513 1514 1515 1516 1517 1518 1518 1519 1520 1521 1521 1522 1523 1524 1525 1525 1526 1527 1528 1528 1529 1530 1531 1531 1531 1532 1533 1533 1534 1534
1488 1491 1493 1495 1497 1499 1500 1502 1503 1505 1506 1507 1508 1509 1511 1512 1512 1513 1514 1515 1516 1517 1517 1518 1519 1519 1520 1522 1522 1523 1524 1525 1525 1526 1527 1527 1528 1528 1529 1529 1530 1530 1531
1484 1486 1488 1491 1493 1495 1497 1498 1500 1501 1502 1503 1503 1505 1507 1508 1509 1509 1510 1511 1512 1513 1513 1514 1515 1516 1516 1518 1520 1521 1521 1521 1521 1522 1522 1524 1524 1525 1525 1526 1526 1527 1528
1480 1482 1485 1487 1489 1491 1492 1494 1494 1495 1496 1497 1499 1500 1502 1503 1504 1505 1506 1507 1508 1508 1509 1511 1512 1513 1513 1514 1516 1517 1519 1518 1519 1517 1518 1519 1520 1521 1521 1522 1523 1523 1524
1477 1479 1481 1483 1485 1486 1488 1489 1490 1491 1493 1494 1495 1496 1497 1498 1499 1501 1502 1502 1503 1504 1505 1506 1507 1509 1509 1510 1511 1513 1514 1514 1515 1514 1513 1514 1515 1516 1517 1518 1519 1519 1520
1473 1475 1477 1479 1480 1482 1483 1485 1486 1487 1488 1489 1490 1490 1491 1493 1494 1495 1497 1498 1499 1500 1500 1502 1503 1504 1505 1506 1507 1508 1509 1510 1510 1510 1509 1509 1510 1511 1512 1513 1514 1515 1516